Alpine, TX

11:50 PM CDT on October 16, 2017 (GMT -0500)
Alpine

Weather History for KE38 - July, 2013

Change the Weather History Date:

Wednesday, July 31, 2013

  Actual Average (KMRF) Record (KMRF)
Temperature  
Mean Temperature 80 °F -  
Max Temperature 95 °F 85 °F 93 °F (2017)
Min Temperature 65 °F 59 °F 55 °F (2000)
Cooling Degree Days 15    
Growing Degree Days 30 (Base 50)    
Moisture  
Dew Point 57 °F    
Average Humidity 48    
Maximum Humidity 75    
Minimum Humidity 24    
Precipitation  
Precipitation 0.00 in - - ()
Sea Level Pressure  
Sea Level Pressure 30.27 in    
Wind  
Wind Speed 7 mph (SE)    
Max Wind Speed 15 mph    
Max Gust Speed 24 mph    
Visibility 10 miles    
Events Thunderstorm    
Averages and records for this station are not official NWS values.
T = Trace of Precipitation, MM = Missing Value Source: NWS Daily Summary

Daily Weather History Graph

Daily Weather History Graph

Search for Another Location

Airport or City:

Trip Planner

Search our weather history database for the weather conditions in past years. The results will help you decide how hot, cold, wet, or windy it might be!

Date:

Astronomy

Jul. 31, 2013 Rise Set
Actual Time 7:12 AM CDT 8:49 PM CDT
Civil Twilight 6:46 AM CDT 9:15 PM CDT
Nautical Twilight 6:15 AM CDT 9:46 PM CDT
Astronomical Twilight 5:42 AM CDT 10:19 PM CDT
Moon 2:09 AM CDT (7/31) 4:06 PM CDT (7/31)
Length of Visible Light 14h 28m
Length of Day
13h 36m
Waning Crescent, 31% of the Moon is Illuminated
Jul 31
Waning Crescent
Aug 6
New
Aug 14
First Quarter
Aug 20
Full
Aug 28
Last Quarter

Hourly Weather History & Observations

Time (CDT) Temp. Heat Index Dew Point Humidity Pressure Visibility Wind Dir Wind Speed Gust Speed Precip Events Conditions
12:15 AM 74.3 °F - 60.8 °F 63% 30.28 in 10.0 mi SW 9.2 mph - N/A   Clear
12:35 AM 73.2 °F - 59.4 °F 62% 30.28 in 10.0 mi SW 6.9 mph - N/A   Clear
12:55 AM 72.9 °F - 58.5 °F 60% 30.28 in 10.0 mi WSW 6.9 mph - N/A   Clear
1:15 AM 70.9 °F - 58.8 °F 66% 30.28 in 10.0 mi SW 5.8 mph - N/A   Clear
1:35 AM 71.8 °F - 58.6 °F 63% 30.28 in 10.0 mi South 8.1 mph - N/A   Clear
1:55 AM 70.7 °F - 58.3 °F 65% 30.28 in 10.0 mi SSW 5.8 mph - N/A   Clear
2:15 AM 69.1 °F - 58.5 °F 69% 30.28 in 10.0 mi SW 6.9 mph - N/A   Clear
2:35 AM 68.9 °F - 59.2 °F 71% 30.27 in 10.0 mi SSW 5.8 mph - N/A   Clear
2:55 AM 67.6 °F - 59.0 °F 74% 30.27 in 10.0 mi WSW 4.6 mph - N/A   Clear
3:15 AM 67.6 °F - 59.0 °F 74% 30.27 in 10.0 mi WSW 6.9 mph - N/A   Clear
3:35 AM 67.6 °F - 57.2 °F 69% 30.27 in 10.0 mi WSW 8.1 mph - N/A   Clear
3:55 AM 66.4 °F - 57.2 °F 72% 30.27 in 10.0 mi WSW 8.1 mph - N/A   Clear
4:15 AM 66.2 °F - 56.7 °F 71% 30.27 in 10.0 mi WSW 6.9 mph - N/A   Clear
4:35 AM 65.1 °F - 57.2 °F 75% 30.28 in 10.0 mi Calm Calm - N/A   Clear
4:55 AM 66.4 °F - 56.7 °F 71% 30.28 in 10.0 mi Calm Calm - N/A   Clear
5:15 AM 66.0 °F - 57.4 °F 74% 30.28 in 10.0 mi SW 6.9 mph - N/A   Clear
5:35 AM 66.9 °F - 57.4 °F 71% 30.28 in 10.0 mi WSW 5.8 mph - N/A   Clear
5:55 AM 66.4 °F - 57.2 °F 72% 30.28 in 10.0 mi WSW 9.2 mph - N/A   Clear
6:15 AM 65.8 °F - 57.0 °F 73% 30.28 in 10.0 mi WSW 6.9 mph - N/A   Clear
6:35 AM 66.4 °F - 56.7 °F 71% 30.29 in 10.0 mi SSW 6.9 mph - N/A   Clear
6:55 AM 65.5 °F - 56.5 °F 73% 30.29 in 10.0 mi SSW 6.9 mph - N/A   Clear
7:15 AM 66.2 °F - 56.3 °F 70% 30.29 in 10.0 mi WSW 8.1 mph - N/A   Clear
7:35 AM 66.7 °F - 56.7 °F 70% 30.30 in 10.0 mi SW 8.1 mph - N/A   Clear
7:55 AM 70.2 °F - 57.0 °F 63% 30.30 in 10.0 mi SSW 4.6 mph - N/A   Clear
8:15 AM 73.4 °F - 57.4 °F 57% 30.30 in 10.0 mi WSW 3.5 mph - N/A   Clear
8:35 AM 76.6 °F - 56.7 °F 50% 30.31 in 10.0 mi SW 4.6 mph - N/A   Clear
8:55 AM 79.2 °F - 57.2 °F 47% 30.31 in 10.0 mi West 3.5 mph - N/A   Clear
9:15 AM 81.0 °F 81.0 °F 57.4 °F 44% 30.31 in 10.0 mi Calm Calm - N/A   Clear
9:35 AM 82.6 °F 82.3 °F 57.7 °F 43% 30.32 in 10.0 mi North 4.6 mph - N/A   Clear
9:55 AM 82.8 °F 82.4 °F 57.6 °F 42% 30.32 in 10.0 mi Calm Calm - N/A   Clear
10:15 AM 84.2 °F 83.7 °F 58.5 °F 41% 30.31 in 10.0 mi Calm Calm - N/A   Clear
10:35 AM 85.1 °F 84.3 °F 57.7 °F 39% 30.31 in 10.0 mi Calm Calm - N/A   Clear
10:55 AM - - - N/A% - - North - - N/A   Unknown
11:15 AM 88.0 °F 86.7 °F 56.8 °F 35% 30.31 in 10.0 mi Calm Calm - N/A   Clear
11:35 AM 89.6 °F 87.9 °F 56.1 °F 32% 30.32 in 10.0 mi NE 4.6 mph - N/A   Clear
11:55 AM 89.4 °F 87.5 °F 55.2 °F 31% 30.32 in 10.0 mi NNW 4.6 mph - N/A   Clear
12:15 PM 89.8 °F 87.9 °F 55.6 °F 31% 30.31 in 10.0 mi North 6.9 mph - N/A   Clear
12:35 PM 91.8 °F 89.8 °F 55.2 °F 29% 30.31 in 10.0 mi NE 12.7 mph - N/A   Clear
12:55 PM 92.7 °F 90.6 °F 55.2 °F 28% 30.30 in 10.0 mi NE 4.6 mph - N/A   Clear
1:15 PM 92.1 °F 90.0 °F 54.3 °F 28% 30.29 in 10.0 mi NNE 10.4 mph - N/A   Scattered Clouds
1:35 PM 93.9 °F 92.2 °F 55.9 °F 28% 30.29 in 10.0 mi ENE 11.5 mph 18.4 mph N/A   Scattered Clouds
1:55 PM 94.1 °F 92.2 °F 55.4 °F 27% 30.28 in 10.0 mi East 13.8 mph 21.9 mph N/A   Scattered Clouds
2:15 PM 93.9 °F 92.0 °F 55.6 °F 27% 30.28 in 10.0 mi East 12.7 mph 19.6 mph N/A   Scattered Clouds
2:35 PM 93.7 °F 91.7 °F 55.4 °F 27% 30.28 in 10.0 mi NNE 9.2 mph 16.1 mph N/A Thunderstorm Scattered Clouds
2:55 PM 91.0 °F 88.7 °F 54.1 °F 28% 30.28 in 10.0 mi East 12.7 mph - N/A   Clear
3:15 PM 89.4 °F 87.1 °F 53.1 °F 29% 30.28 in 10.0 mi East 12.7 mph 18.4 mph N/A   Clear
3:35 PM 87.6 °F 86.5 °F 57.6 °F 36% 30.27 in 10.0 mi ESE 10.4 mph - N/A   Clear
3:55 PM 86.5 °F 86.1 °F 59.5 °F 40% 30.25 in 10.0 mi SE 8.1 mph - N/A   Clear
4:15 PM 89.2 °F 88.2 °F 58.6 °F 35% 30.24 in 10.0 mi ESE 3.5 mph - N/A   Clear
4:35 PM 90.9 °F 89.7 °F 58.3 °F 33% 30.22 in 10.0 mi ENE 9.2 mph 19.6 mph N/A   Scattered Clouds
4:55 PM 95.0 °F 92.5 °F 53.2 °F 24% 30.21 in 10.0 mi ENE 15.0 mph 20.7 mph N/A   Scattered Clouds
5:15 PM 92.5 °F 91.0 °F 56.5 °F 30% 30.21 in 10.0 mi NE 12.7 mph 17.3 mph N/A   Scattered Clouds
5:35 PM 94.8 °F 92.5 °F 54.0 °F 25% 30.21 in 10.0 mi East 12.7 mph 18.4 mph N/A   Scattered Clouds
5:55 PM 93.2 °F 90.8 °F 53.2 °F 26% 30.21 in 10.0 mi East 15.0 mph 24.2 mph N/A   Clear
6:15 PM 93.6 °F 91.5 °F 55.0 °F 27% 30.20 in 10.0 mi ENE 5.8 mph - N/A   Scattered Clouds
6:35 PM 90.5 °F 89.8 °F 59.4 °F 35% 30.20 in 10.0 mi East 12.7 mph - N/A   Scattered Clouds
6:55 PM 89.1 °F 88.0 °F 58.3 °F 35% 30.21 in 10.0 mi East 10.4 mph 16.1 mph N/A   Clear
7:15 PM 89.6 °F 87.9 °F 55.9 °F 32% 30.21 in 10.0 mi East 11.5 mph - N/A   Clear
7:35 PM 88.5 °F 86.5 °F 54.1 °F 31% 30.22 in 10.0 mi ESE 12.7 mph - N/A   Clear
7:55 PM 87.8 °F 85.7 °F 53.8 °F 31% 30.22 in 10.0 mi East 12.7 mph 16.1 mph N/A   Clear
8:15 PM 85.8 °F 84.8 °F 57.2 °F 38% 30.23 in 10.0 mi ESE 10.4 mph - N/A   Clear
8:35 PM 84.2 °F 83.3 °F 56.7 °F 39% 30.23 in 10.0 mi East 9.2 mph - N/A   Clear
8:55 PM 83.5 °F 82.8 °F 56.8 °F 40% 30.24 in 10.0 mi East 9.2 mph - N/A   Clear
9:15 PM 81.9 °F 81.8 °F 58.1 °F 44% 30.24 in 10.0 mi SE 11.5 mph - N/A   Clear
9:35 PM 81.5 °F 81.5 °F 57.6 °F 44% 30.24 in 10.0 mi ESE 8.1 mph - N/A   Clear
9:55 PM 81.1 °F 81.0 °F 56.3 °F 42% 30.24 in 10.0 mi ESE 9.2 mph - N/A   Clear
10:15 PM 80.1 °F 80.2 °F 55.8 °F 43% 30.25 in 10.0 mi ESE 9.2 mph - N/A   Clear
10:35 PM 80.1 °F 80.1 °F 55.2 °F 42% 30.26 in 10.0 mi ESE 8.1 mph - N/A   Clear
10:55 PM 78.8 °F - 55.4 °F 44% 30.27 in 10.0 mi SSE 5.8 mph - N/A   Clear
11:15 PM 76.1 °F - 55.9 °F 50% 30.28 in 10.0 mi SE 5.8 mph - N/A   Clear
11:35 PM 74.8 °F - 55.8 °F 51% 30.28 in 10.0 mi SSW 3.5 mph - N/A   Clear
11:55 PM 71.8 °F - 56.3 °F 58% 30.28 in 10.0 mi WSW 5.8 mph - N/A   Clear